Location: Muck Cross
(36.7179°N, 78.3678°W)
Time: 17:00:43
(UTC+00:00)

Explorer 11/Cluster Stage 4 - Visible Passes

Search period start: 31 March 2023 00:00
Search period end: 10 April 2023 00:00
Orbit: 466 x 1241 km, 28.8° (Epoch: 30 March)

Date Brightness Start Highest point End Pass type
(mag) Time Alt. Az. Time Alt. Az. Time Alt. Az.
31 Mar 7.4 10:10:46 10° SW 10:13:33 21° S 10:16:38 10° ESE visible
01 Apr 7.3 09:57:55 14° SSW 09:59:54 22° S 10:02:56 10° ESE visible
02 Apr 7.1 09:45:02 19° SSW 09:46:16 22° S 09:49:15 10° ESE visible
03 Apr 7.0 09:32:09 22° S 09:32:37 23° S 09:35:35 10° ESE visible
04 Apr 7.0 09:19:15 23° S 09:19:15 23° S 09:21:56 10° ESE visible
05 Apr 7.3 09:06:21 21° SSE 09:06:21 21° SSE 09:08:17 10° SE visible
06 Apr 7.7 08:53:28 17° SE 08:53:28 17° SE 08:54:39 10° SE visible
07 Apr 8.2 08:40:37 12° SE 08:40:37 12° SE 08:41:02 10° SE visible
08 Apr 7.6 10:10:00 10° SW 10:11:44 13° SSW 10:13:26 10° S visible
09 Apr 7.7 09:57:00 11° SW 09:58:00 12° SSW 09:59:21 10° S visible
